When you browse on this site, cookies collect data to enhance your experience and personalize the content and advertising you see.
Visit our Privacy Policy to learn more. By continuing to use the site, you agree to this use of cookies and data.
  • în România
  • Lista ţărilor
  • Pe 7 zile
  • Temperatura apei
  • Meteo pe hartă
  • Widget-uri
  • user-avatar
    Intrare

    Meteo pe oră la Maracaibo

    Astăzi, 15 Octombrie, Marţi

    Timp Temperatura Precipitaţii Vânt Presiune Umiditate
    00:00 +28°C° 0.9 mm 4 m/s 753 mmHg 84%
    01:00 +27°C° 0 mm 4 m/s 753 mmHg 87%
    02:00 +27°C° 1.3 mm 3 m/s 753 mmHg 87%
    03:00 +27°C° 1.3 mm 3 m/s 753 mmHg 87%
    04:00 +27°C° 1.3 mm 3 m/s 753 mmHg 87%
    05:00 +27°C° 0.2 mm 3 m/s 753 mmHg 86%
    06:00 +28°C° 0.2 mm 2 m/s 753 mmHg 85%
    07:00 +28°C° 0.2 mm 2 m/s 753 mmHg 84%
    08:00 +29°C° 0.1 mm 2 m/s 754 mmHg 77%
    09:00 +31°C° 0.1 mm 2 m/s 754 mmHg 71%
    10:00 +32°C° 0.1 mm 2 m/s 754 mmHg 65%
    11:00 +34°C° 0.1 mm 2 m/s 753 mmHg 63%
    12:00 +34°C° 0.1 mm 2 m/s 752 mmHg 62%
    13:00 +35°C° 0.1 mm 2 m/s 751 mmHg 61%
    14:00 +34°C° 0.3 mm 2 m/s 751 mmHg 63%
    15:00 +34°C° 0.3 mm 2 m/s 751 mmHg 66%
    16:00 +32°C° 0.3 mm 2 m/s 750 mmHg 68%
    17:00 +31°C° 0.8 mm 2 m/s 751 mmHg 72%
    18:00 +30°C° 0.8 mm 2 m/s 751 mmHg 76%
    19:00 +29°C° 0.8 mm 2 m/s 752 mmHg 80%
    20:00 +29°C° 0.2 mm 2 m/s 752 mmHg 82%
    21:00 +28°C° 0.2 mm 3 m/s 752 mmHg 84%
    22:00 +28°C° 0.2 mm 3 m/s 753 mmHg 86%
    23:00 +28°C° 1.2 mm 3 m/s 752 mmHg 86%

    Mâine, 16 Octombrie, Miercuri

    Timp Temperatura Precipitaţii Vânt Presiune Umiditate
    00:00 +28°C° 1.2 mm 2 m/s 752 mmHg 87%
    01:00 +28°C° 1.2 mm 2 m/s 752 mmHg 88%
    02:00 +27°C° 0.9 mm 2 m/s 752 mmHg 88%
    03:00 +27°C° 0.9 mm 2 m/s 752 mmHg 88%
    04:00 +27°C° 0.9 mm 1 m/s 752 mmHg 89%
    05:00 +27°C° 0.2 mm 1 m/s 752 mmHg 88%
    06:00 +28°C° 0.2 mm 1 m/s 752 mmHg 87%
    07:00 +28°C° 0.2 mm 2 m/s 753 mmHg 86%
    08:00 +30°C° 0.7 mm 2 m/s 753 mmHg 80%
    09:00 +31°C° 0.7 mm 2 m/s 753 mmHg 74%
    10:00 +32°C° 0.7 mm 2 m/s 753 mmHg 67%
    11:00 +34°C° 0.3 mm 2 m/s 753 mmHg 66%
    12:00 +34°C° 0.3 mm 2 m/s 752 mmHg 65%
    13:00 +34°C° 0.3 mm 2 m/s 751 mmHg 64%
    14:00 +34°C° 0.2 mm 2 m/s 751 mmHg 66%
    15:00 +32°C° 0.2 mm 2 m/s 750 mmHg 68%
    16:00 +32°C° 0.2 mm 2 m/s 750 mmHg 70%
    17:00 +31°C° 0.1 mm 2 m/s 751 mmHg 73%
    18:00 +30°C° 0.1 mm 3 m/s 751 mmHg 76%
    19:00 +29°C° 0.1 mm 3 m/s 751 mmHg 80%
    20:00 +29°C° 0.7 mm 3 m/s 752 mmHg 82%
    21:00 +29°C° 0.7 mm 3 m/s 752 mmHg 83%
    22:00 +29°C° 0.7 mm 3 m/s 752 mmHg 85%
    23:00 +28°C° 1.7 mm 3 m/s 752 mmHg 85%

    Poimâine, 17 Octombrie, Joi

    Timp Temperatura Precipitaţii Vânt Presiune Umiditate
    00:00 +28°C° 1.7 mm 3 m/s 752 mmHg 86%
    01:00 +28°C° 1.7 mm 3 m/s 752 mmHg 86%
    02:00 +28°C° 2.2 mm 3 m/s 752 mmHg 88%
    03:00 +27°C° 2.2 mm 3 m/s 752 mmHg 89%
    04:00 +27°C° 2.2 mm 2 m/s 752 mmHg 91%
    05:00 +27°C° 0.3 mm 2 m/s 752 mmHg 90%
    06:00 +27°C° 0.3 mm 2 m/s 753 mmHg 90%
    07:00 +27°C° 0.3 mm 3 m/s 753 mmHg 89%
    08:00 +28°C° 0 mm 3 m/s 753 mmHg 83%
    09:00 +30°C° 0 mm 3 m/s 753 mmHg 77%
    10:00 +31°C° 0 mm 2 m/s 754 mmHg 71%
    11:00 +32°C° 0 mm 2 m/s 753 mmHg 68%
    12:00 +34°C° 0 mm 2 m/s 752 mmHg 65%
    13:00 +33°C° 0 mm 1 m/s 751 mmHg 63%
    14:00 +33°C° 0 mm 1 m/s 750 mmHg 64%
    15:00 +33°C° 0 mm 1 m/s 750 mmHg 66%
    16:00 +32°C° 0 mm 1 m/s 750 mmHg 67%
    17:00 +31°C° 0.1 mm 2 m/s 750 mmHg 72%
    18:00 +30°C° 0.1 mm 3 m/s 751 mmHg 76%
    19:00 +29°C° 0.1 mm 3 m/s 751 mmHg 81%
    20:00 +29°C° 0.1 mm 3 m/s 752 mmHg 82%
    21:00 +29°C° 0.1 mm 4 m/s 752 mmHg 83%
    22:00 +28°C° 0.1 mm 4 m/s 752 mmHg 83%
    23:00 +28°C° 0.6 mm 4 m/s 752 mmHg 84%

    18 Octombrie, Vineri

    Timp Temperatura Precipitaţii Vânt Presiune Umiditate
    00:00 +28°C° 0.6 mm 4 m/s 752 mmHg 85%
    01:00 +28°C° 0.6 mm 4 m/s 752 mmHg 85%
    02:00 +28°C° 0.9 mm 3 m/s 752 mmHg 86%
    03:00 +27°C° 0.9 mm 3 m/s 752 mmHg 86%
    04:00 +27°C° 0.9 mm 2 m/s 752 mmHg 87%
    05:00 +27°C° 0.2 mm 2 m/s 752 mmHg 87%
    06:00 +27°C° 0.2 mm 2 m/s 753 mmHg 87%
    07:00 +28°C° 0.2 mm 1 m/s 753 mmHg 87%
    08:00 +29°C° 0.3 mm 1 m/s 753 mmHg 82%
    09:00 +30°C° 0.3 mm 2 m/s 754 mmHg 76%
    10:00 +32°C° 0.3 mm 2 m/s 754 mmHg 71%
    11:00 +32°C° 0.7 mm 2 m/s 753 mmHg 70%
    12:00 +32°C° 0.7 mm 2 m/s 752 mmHg 69%
    13:00 +34°C° 0.7 mm 2 m/s 751 mmHg 68%
    14:00 +32°C° 0.6 mm 2 m/s 751 mmHg 69%
    15:00 +32°C° 0.6 mm 2 m/s 750 mmHg 71%
    16:00 +31°C° 0.6 mm 2 m/s 750 mmHg 73%
    17:00 +30°C° 0.4 mm 2 m/s 751 mmHg 76%
    18:00 +29°C° 0.4 mm 1 m/s 751 mmHg 80%
    19:00 +28°C° 0.4 mm 1 m/s 752 mmHg 84%
    20:00 +28°C° 1.4 mm 2 m/s 752 mmHg 84%
    21:00 +28°C° 1.4 mm 2 m/s 752 mmHg 85%
    22:00 +27°C° 1.4 mm 2 m/s 753 mmHg 86%
    23:00 +27°C° 0.5 mm 2 m/s 752 mmHg 86%

    19 Octombrie, Sâmbătă

    Timp Temperatura Precipitaţii Vânt Presiune Umiditate
    00:00 +27°C° 0.5 mm 2 m/s 752 mmHg 87%
    01:00 +27°C° 0.5 mm 2 m/s 752 mmHg 87%
    02:00 +27°C° 0.4 mm 2 m/s 752 mmHg 88%
    03:00 +27°C° 0.4 mm 2 m/s 752 mmHg 89%
    04:00 +26°C° 0.4 mm 2 m/s 752 mmHg 90%
    05:00 +27°C° 0.3 mm 2 m/s 752 mmHg 89%
    06:00 +27°C° 0.3 mm 2 m/s 752 mmHg 88%
    07:00 +28°C° 0.3 mm 1 m/s 753 mmHg 87%
    08:00 +29°C° 0.3 mm 1 m/s 753 mmHg 80%
    09:00 +31°C° 0.3 mm 1 m/s 753 mmHg 73%
    10:00 +32°C° 0.3 mm 1 m/s 753 mmHg 66%
    11:00 +33°C° 0.3 mm 1 m/s 752 mmHg 65%
    12:00 +33°C° 0.3 mm 1 m/s 751 mmHg 64%
    13:00 +33°C° 0.3 mm 1 m/s 750 mmHg 63%
    14:00 +33°C° 0.1 mm 1 m/s 750 mmHg 65%
    15:00 +32°C° 0.1 mm 1 m/s 750 mmHg 66%
    16:00 +32°C° 0.1 mm 1 m/s 750 mmHg 68%
    17:00 +31°C° 0.2 mm 2 m/s 750 mmHg 72%
    18:00 +30°C° 0.2 mm 2 m/s 751 mmHg 75%
    19:00 +29°C° 0.2 mm 3 m/s 751 mmHg 79%
    20:00 +29°C° 0.4 mm 3 m/s 751 mmHg 79%
    21:00 +29°C° 0.4 mm 3 m/s 752 mmHg 80%
    22:00 +28°C° 0.4 mm 3 m/s 752 mmHg 80%
    23:00 +28°C° 0.8 mm 3 m/s 752 mmHg 82%

    20 Octombrie, Duminică

    Timp Temperatura Precipitaţii Vânt Presiune Umiditate
    00:00 +28°C° 0.8 mm 3 m/s 752 mmHg 84%
    01:00 +28°C° 0.8 mm 2 m/s 752 mmHg 85%
    02:00 +27°C° 1.9 mm 3 m/s 752 mmHg 87%
    03:00 +26°C° 1.9 mm 4 m/s 752 mmHg 89%
    04:00 +26°C° 1.9 mm 5 m/s 752 mmHg 91%
    05:00 +26°C° 0 mm 4 m/s 752 mmHg 90%
    06:00 +26°C° 0 mm 3 m/s 753 mmHg 89%
    07:00 +26°C° 0 mm 2 m/s 753 mmHg 88%
    08:00 +28°C° 0 mm 2 m/s 753 mmHg 80%
    09:00 +29°C° 0 mm 2 m/s 753 mmHg 72%
    10:00 +31°C° 0 mm 2 m/s 754 mmHg 64%
    11:00 +32°C° 0 mm 2 m/s 753 mmHg 61%
    12:00 +32°C° 0 mm 2 m/s 752 mmHg 59%
    13:00 +34°C° 0 mm 2 m/s 751 mmHg 56%
    14:00 +34°C° 0.1 mm 2 m/s 751 mmHg 59%
    15:00 +32°C° 0.1 mm 1 m/s 751 mmHg 63%
    16:00 +32°C° 0.1 mm 1 m/s 751 mmHg 66%
    17:00 +31°C° 0.2 mm 1 m/s 751 mmHg 69%
    18:00 +29°C° 0.2 mm 1 m/s 752 mmHg 72%
    19:00 +26°C° 0.2 mm 0 m/s 752 mmHg 76%
    20:00 +28°C° 0.9 mm 1 m/s 752 mmHg 77%
    21:00 +28°C° 0.9 mm 1 m/s 753 mmHg 79%
    22:00 +28°C° 0.9 mm 1 m/s 753 mmHg 81%
    23:00 +27°C° 0.6 mm 1 m/s 753 mmHg 83%
    Arată mai mult